TimeEEST,TemperatureF,Dew PointF,Humidity,Sea Level PressureIn,VisibilityMPH,Wind Direction,Wind SpeedMPH,Gust SpeedMPH,PrecipitationIn,Events,Conditions,WindDirDegrees,DateUTC
12:20 AM,64.4,46.4,52,30.04,-9999.0,NNW,9.2,-,N/A,,Unknown,330,2012-10-03 21:20:00
12:50 AM,64.4,46.4,52,30.04,-9999.0,NNW,8.1,-,N/A,,Unknown,330,2012-10-03 21:50:00
1:20 AM,62.6,46.4,55,30.04,-9999.0,West,4.6,-,N/A,,Unknown,270,2012-10-03 22:20:00
1:50 AM,62.6,46.4,55,30.04,-9999.0,Variable,1.2,-,N/A,,Unknown,0,2012-10-03 22:50:00
2:20 AM,62.6,48.2,59,30.04,-9999.0,West,4.6,-,N/A,,Unknown,280,2012-10-03 23:20:00
2:50 AM,60.8,48.2,63,30.04,-9999.0,Variable,3.5,-,N/A,,Unknown,0,2012-10-03 23:50:00
3:20 AM,59.0,48.2,67,30.04,-9999.0,Variable,3.5,-,N/A,,Unknown,0,2012-10-04 00:20:00
3:50 AM,60.8,50.0,68,30.04,-9999.0,Variable,2.3,-,N/A,,Unknown,0,2012-10-04 00:50:00
4:20 AM,60.8,50.0,68,30.04,-9999.0,NW,4.6,-,N/A,,Unknown,320,2012-10-04 01:20:00
4:50 AM,60.8,50.0,68,30.04,-9999.0,WNW,8.1,-,N/A,,Unknown,300,2012-10-04 01:50:00
5:20 AM,60.8,50.0,68,30.04,-9999.0,NW,9.2,-,N/A,,Unknown,320,2012-10-04 02:20:00
5:50 AM,60.8,50.0,68,30.04,-9999.0,NNW,10.4,-,N/A,,Unknown,330,2012-10-04 02:50:00
6:20 AM,60.8,48.2,63,30.04,-9999.0,NNW,10.4,-,N/A,,Unknown,340,2012-10-04 03:20:00
6:50 AM,60.8,50.0,68,30.04,-9999.0,NNW,11.5,-,N/A,,Unknown,330,2012-10-04 03:50:00
7:20 AM,60.8,50.0,68,30.04,-9999.0,NNW,11.5,-,N/A,,Unknown,340,2012-10-04 04:20:00
7:50 AM,60.8,48.2,63,30.04,-9999.0,NNW,9.2,-,N/A,,Unknown,340,2012-10-04 04:50:00
8:20 AM,60.8,50.0,68,30.04,-9999.0,NW,9.2,-,N/A,,Unknown,320,2012-10-04 05:20:00
8:50 AM,62.6,50.0,63,30.06,-9999.0,NW,10.4,-,N/A,,Clear,320,2012-10-04 05:50:00
9:50 AM,64.4,50.0,59,30.06,-9999.0,NNW,11.5,-,N/A,,Clear,330,2012-10-04 06:50:00
10:50 AM,68.0,50.0,52,30.06,-9999.0,NNW,10.4,-,N/A,,Clear,340,2012-10-04 07:50:00
11:50 AM,69.8,48.2,46,30.06,-9999.0,North,6.9,-,N/A,,Clear,350,2012-10-04 08:50:00
12:50 PM,73.4,48.2,41,30.04,6.2,North,5.8,-,N/A,,Partly Cloudy,350,2012-10-04 09:50:00
1:50 PM,71.6,46.4,41,30.04,6.2,Calm,Calm,-,N/A,,Partly Cloudy,0,2012-10-04 10:50:00
2:50 PM,75.2,44.6,34,30.01,6.2,Calm,Calm,-,N/A,,Scattered Clouds,0,2012-10-04 11:50:00
3:20 PM,77.0,44.6,32,30.01,-9999.0,West,4.6,-,N/A,,Unknown,270,2012-10-04 12:20:00
3:50 PM,78.8,44.6,30,30.01,-9999.0,Variable,3.5,-,N/A,,Unknown,0,2012-10-04 12:50:00
4:20 PM,78.8,42.8,28,29.98,-9999.0,Variable,3.5,-,N/A,,Unknown,0,2012-10-04 13:20:00
4:50 PM,77.0,42.8,29,29.98,-9999.0,West,4.6,-,N/A,,Unknown,260,2012-10-04 13:50:00
5:20 PM,77.0,41.0,28,29.98,-9999.0,Variable,3.5,-,N/A,,Unknown,0,2012-10-04 14:20:00
5:50 PM,75.2,42.8,31,29.98,-9999.0,NW,4.6,-,N/A,,Unknown,310,2012-10-04 14:50:00
6:20 PM,75.2,42.8,31,29.98,-9999.0,NNW,4.6,-,N/A,,Unknown,340,2012-10-04 15:20:00
6:50 PM,73.4,42.8,33,29.98,-9999.0,North,4.6,-,N/A,,Unknown,360,2012-10-04 15:50:00
7:20 PM,69.8,42.8,38,29.98,-9999.0,Calm,Calm,-,N/A,,Unknown,0,2012-10-04 16:20:00
7:50 PM,68.0,42.8,40,30.01,-9999.0,Variable,1.2,-,N/A,,Unknown,0,2012-10-04 16:50:00
8:20 PM,64.4,44.6,49,30.01,-9999.0,Calm,Calm,-,N/A,,Unknown,0,2012-10-04 17:20:00
8:50 PM,66.2,44.6,46,30.01,-9999.0,Variable,2.3,-,N/A,,Unknown,0,2012-10-04 17:50:00
9:20 PM,64.4,44.6,49,30.01,-9999.0,Variable,3.5,-,N/A,,Unknown,0,2012-10-04 18:20:00
9:50 PM,66.2,44.6,46,30.01,-9999.0,NW,5.8,-,N/A,,Unknown,310,2012-10-04 18:50:00
10:20 PM,62.6,44.6,52,30.04,-9999.0,NNW,4.6,-,N/A,,Unknown,330,2012-10-04 19:20:00
10:50 PM,60.8,44.6,55,30.04,-9999.0,Variable,2.3,-,N/A,,Unknown,0,2012-10-04 19:50:00
11:20 PM,59.0,44.6,59,30.04,-9999.0,Variable,1.2,-,N/A,,Unknown,0,2012-10-04 20:20:00
11:50 PM,59.0,44.6,59,30.04,-9999.0,Variable,1.2,-,N/A,,Unknown,0,2012-10-04 20:50:00